Cordova, AK

3:48 PM AKST on December 16, 2017 (GMT -0900)
Cordova-Smith

Weather History for PACV - July, 2013

Change the Weather History Date:

Sunday, July 14, 2013

  Actual Average Record
Temperature  
Mean Temperature 55 °F -  
Max Temperature 60 °F 60 °F 80 °F (1956)
Min Temperature 50 °F 46 °F 37 °F (1959)
Degree Days  
Heating Degree Days 10    
Growing Degree Days 5 (Base 50)    
Moisture  
Dew Point 51 °F    
Average Humidity 88    
Maximum Humidity 96    
Minimum Humidity 69    
Precipitation  
Precipitation 0.01 in - - ()
Sea Level Pressure  
Sea Level Pressure 30.32 in    
Wind  
Wind Speed 1 mph (NNW)    
Max Wind Speed 7 mph    
Max Gust Speed -    
Visibility 8 miles    
Events Rain    
Averages and records for this station are not official NWS values.
T = Trace of Precipitation, MM = Missing Value Source: NWS Daily Summary

Daily Weather History Graph

Daily Weather History Graph

Search for Another Location

Airport or City:

Trip Planner

Search our weather history database for the weather conditions in past years. The results will help you decide how hot, cold, wet, or windy it might be!

Date:

Astronomy

Jul. 14, 2013 Rise Set
Actual Time 4:39 AM AKDT 10:54 PM AKDT
Civil Twilight 3:15 AM AKDT 12:17 AM AKDT
Nautical Twilight Sun does not rise Sun does not rise
Astronomical Twilight Sun does not rise Sun does not rise
Moon 1:14 PM AKDT (7/14) 11:57 PM AKDT (7/14)
Length of Visible Light 21h 02m
Length of Day
18h 14m
Waxing Crescent, 36% of the Moon is Illuminated
Jul 14
Waxing Crescent
Jul 15
First Quarter
Jul 22
Full
Jul 29
Last Quarter
Aug 6
New

Hourly Weather History & Observations

Time (AKDT) Temp. Dew Point Humidity Pressure Visibility Wind Dir Wind Speed Gust Speed Precip Events Conditions
12:05 AM 51.8 °F 50.0 °F 94% 30.28 in 10.0 mi Calm Calm - N/A   Overcast
12:15 AM 51.8 °F 50.0 °F 94% 30.28 in 10.0 mi Calm Calm - N/A   Overcast
12:29 AM 51.8 °F 48.2 °F 88% 30.29 in 10.0 mi Calm Calm - N/A   Overcast
12:53 AM 51.1 °F 48.9 °F 92% 30.30 in 10.0 mi Calm Calm - N/A   Overcast
1:41 AM 51.8 °F 48.2 °F 88% 30.30 in 10.0 mi Calm Calm - N/A   Overcast
1:53 AM 51.1 °F 48.0 °F 89% 30.31 in 10.0 mi ENE 3.5 mph - N/A   Overcast
2:27 AM 51.8 °F 48.2 °F 88% 30.31 in 9.0 mi Calm Calm - N/A   Overcast
2:49 AM 50.0 °F 48.2 °F 94% 30.31 in 8.0 mi Calm Calm - N/A   Overcast
2:53 AM 51.1 °F 48.9 °F 92% 30.32 in 8.0 mi NE 3.5 mph - N/A   Overcast
3:53 AM 51.1 °F 50.0 °F 96% 30.32 in 4.0 mi NE 3.5 mph - 0.01 in Rain Light Rain
4:41 AM 50.0 °F 48.2 °F 94% 30.32 in 7.0 mi Calm Calm - 0.00 in   Overcast
4:53 AM 50.0 °F 48.0 °F 93% 30.32 in 7.0 mi Calm Calm - 0.00 in   Overcast
5:53 AM 50.0 °F 48.0 °F 93% 30.32 in 10.0 mi Calm Calm - N/A   Mostly Cloudy
6:53 AM 51.1 °F 48.0 °F 89% 30.33 in 10.0 mi Calm Calm - N/A   Mostly Cloudy
7:53 AM 52.0 °F 48.9 °F 89% 30.33 in 10.0 mi Calm Calm - N/A   Overcast
8:53 AM 54.0 °F 48.9 °F 83% 30.33 in 10.0 mi Calm Calm - N/A   Overcast
9:53 AM 57.0 °F 52.0 °F 83% 30.33 in 10.0 mi Calm Calm - N/A   Overcast
10:53 AM 59.0 °F 52.0 °F 78% 30.33 in 10.0 mi Calm Calm - N/A   Overcast
11:53 AM 59.0 °F 50.0 °F 72% 30.33 in 10.0 mi WSW 3.5 mph - N/A   Overcast
12:53 PM 60.1 °F 50.0 °F 69% 30.34 in 10.0 mi Calm Calm - N/A   Overcast
1:53 PM 60.1 °F 51.1 °F 72% 30.34 in 10.0 mi Calm Calm - N/A   Overcast
2:53 PM 60.1 °F 51.1 °F 72% 30.33 in 10.0 mi Calm Calm - N/A   Overcast
3:53 PM 59.0 °F 52.0 °F 78% 30.33 in 10.0 mi WSW 3.5 mph - N/A   Overcast
4:53 PM 59.0 °F 53.1 °F 81% 30.33 in 10.0 mi West 4.6 mph - 0.00 in   Overcast
5:42 PM 57.2 °F 53.6 °F 88% 30.32 in 8.0 mi West 5.8 mph - N/A   Overcast
5:53 PM 57.9 °F 54.0 °F 87% 30.33 in 7.0 mi WSW 5.8 mph - N/A   Overcast
6:33 PM 57.2 °F 53.6 °F 88% 30.33 in 10.0 mi West 6.9 mph - N/A   Overcast
6:53 PM 57.9 °F 54.0 °F 87% 30.33 in 10.0 mi West 5.8 mph - N/A   Overcast
7:53 PM 55.9 °F 54.0 °F 93% 30.32 in 4.0 mi Calm Calm - 0.00 in Rain Light Rain
8:02 PM 55.4 °F 53.6 °F 94% 30.32 in 4.0 mi Calm Calm - 0.00 in Rain Light Rain
8:37 PM 55.4 °F 53.6 °F 94% 30.32 in 6.0 mi Calm Calm - 0.00 in   Overcast
8:53 PM 55.0 °F 53.1 °F 93% 30.32 in 4.0 mi Calm Calm - 0.00 in   Overcast
9:30 PM 53.6 °F 51.8 °F 94% 30.32 in 5.0 mi Calm Calm - 0.00 in Rain Light Rain
9:51 PM 53.6 °F 51.8 °F 94% 30.32 in 2.5 mi ENE 3.5 mph - 0.00 in Rain Light Rain
9:53 PM 53.1 °F 51.1 °F 93% 30.32 in 2.5 mi ENE 3.5 mph - 0.00 in Rain Light Rain
10:12 PM 53.6 °F 51.8 °F 94% 30.32 in 6.0 mi ENE 3.5 mph - 0.00 in Rain Light Rain
10:29 PM 53.6 °F 51.8 °F 94% 30.32 in 9.0 mi Calm Calm - 0.00 in Rain Light Rain
10:53 PM 52.0 °F 50.0 °F 93% 30.32 in 10.0 mi ENE 5.8 mph - 0.00 in   Overcast
11:53 PM 52.0 °F 48.9 °F 89% 30.33 in 10.0 mi Calm Calm - N/A   Overcast